Location: Estes Par
(40.3770°N, 105.5210°W)
Time: 12:42:02
(UTC-06:00)

ISS - Pass Details

Date: 14 October 2017
Orbit: 401 x 408 km, 51.6° (Epoch: 19 October)

Event Time Altitude Azimuth Distance (km) Brightness Sun altitude
Rises 18:57:36 0° 309° (NW) 2,318 0.8 -7.3°
Reaches altitude 10° 18:59:42 10° 313° (NW) 1,457 -0.4 -7.7°
Maximum altitude 19:02:56 59° 34° (NE) 471 -3.7 -8.4°
Drops below altitude 10° 19:06:09 10° 115° (ESE) 1,454 -1.6 -9.0°
Enters shadow 19:06:14 10° 115° (ESE) 1,484 -1.5 -9.0°
